Flag for Germany Weather past 2 weeks in Güstrow, Mecklenburg-Western Pomerania, Germany

Now
45 °F

Quite cool.


Feels Like: 39 °F
Forecast: 46 / 64 °F
Wind: 10 mph from East

Location: Laage


UV Index: 0 (Low)

Visibility: 6 mi


Pressure: 30.01 "Hg

Humidity: 93%

Dew point: 43 °F

Location of GüstrowLocation

Historic Weather in Güstrow

°F

Güstrow temperature yesterday

Maximum temperature yesterday: 63 °F (at 1:20 PM)
Minimum temperature yesterday: 37 °F (at 2:20 AM)
Average temperature yesterday: 50 °F

Past Weeks' High & Low Weather Summary

 TemperatureHumidityPressure
High64 °F (Apr 7, 2:20 PM)100% (Apr 6, 3:20 AM)30.45 "Hg (Apr 6, 3:20 AM)
Low30 °F (Apr 16, 5:20 AM)36% (Apr 17, 12:20 PM)29.59 "Hg (Apr 14, 7:20 AM)
Average48 °F78%30.00 "Hg
* Reported Apr 5 4:20 AM — Apr 20 4:20 AM, Güstrow, Weather by CustomWeather, © 2014

Note: Actual official high and low records may vary slightly from our data, if they occured in-between our weather recording intervals... More about our weather records

Advertising

Historic Weather Conditions — Data for Previous 24 hours

 ConditionsComfort  
Time TempWeatherWind HumidityBarometerVisibility
4:20 AM
Apr 20
45 °FQuite cool.10 mph93%30.01 "Hg6 mi
3:20 AM45 °FQuite cool.9 mph93%30.04 "Hg5 mi
2:20 AM46 °FCool.9 mph87%30.04 "Hg6 mi
1:20 AM46 °FCool.12 mph87%30.07 "Hg6 mi
12:20 AM48 °FCool.12 mph82%30.07 "HgN/A
11:20 PM
Apr 19
50 °FCool.12 mph76%30.09 "HgN/A
10:20 PM50 °FCool.12 mph82%30.09 "HgN/A
9:20 PM52 °FCool.12 mph77%30.09 "HgN/A
8:20 PM54 °FCool.14 mph72%30.09 "HgN/A
7:20 PM57 °FCool.9 mph63%30.09 "HgN/A
6:20 PM59 °FRefreshingly cool.16 mph59%30.09 "HgN/A
5:20 PM63 °FMild.17 mph56%30.09 "HgN/A
4:20 PM63 °FMild.16 mph56%30.09 "HgN/A
3:20 PM63 °FMild.17 mph52%30.12 "HgN/A
2:20 PM63 °FPassing clouds.16 mph49%30.15 "HgN/A
1:20 PM63 °FPassing clouds.15 mph56%30.15 "HgN/A
12:20 PM57 °FPassing clouds.13 mph67%30.18 "HgN/A
11:20 AM55 °FPassing clouds.9 mph72%30.18 "HgN/A
10:20 AM52 °FPassing clouds.7 mph77%30.18 "HgN/A
9:20 AM48 °FCool.5 mph82%30.18 "HgN/A
8:20 AM45 °FQuite cool.7 mph87%30.15 "HgN/A
7:20 AM41 °FQuite cool.5 mph93%30.15 "Hg4 mi
6:20 AM37 °FChilly.3 mph100%30.12 "Hg1 mi
5:20 AM37 °FChilly.6 mph100%30.12 "Hg3 mi
Weather by CustomWeather, © 2014

See weather overview